Location: Hayneville
(32.3835°N, 83.6207°W)
Time: 15:22:02
(UTC+00:00)

Daily predictions for brighter satellites

Satellite Brightness Start Highest point End
(mag) Time Altitude Azimuth Time Altitude Azimuth Time Altitude Azimuth
Cosmos 1626 Rocket 4.2 12:03:21 10° NNW 12:07:26 36° W 12:11:31 10° SSW
GEOS 3 Rocket 4.0 12:03:16 10° SSE 12:08:24 51° WSW 12:13:38 10° NW
Aurora 2 Rocket 4.5 12:03:12 10° WSW 12:08:28 44° S 12:15:55 10° ESE
Cosmos 1937 Rocket 4.3 12:04:18 10° NW 12:08:53 31° W 12:13:25 10° SSW
Cosmos 372 Rocket 4.0 12:05:05 10° NNW 12:10:18 66° WSW 12:15:26 10° S
Radarsat Rocket 4.4 12:05:01 10° NNE 12:12:36 75° WNW 12:19:13 10° SSW
H-2A ROCKET BODY 4.2 22:39:09 10° W 22:44:54 70° S 23:17:42 10° ESE
NOAA 12 4.3 23:12:45 10° S 23:17:58 80° WSW 23:23:13 10° NNW
Okean-O 4.1 23:23:43 10° ESE 23:26:29 16° ENE 23:29:14 10° NNE
Okean O Rocket 1.7 23:22:24 10° SSE 23:26:51 86° W 23:31:18 10° NNW
GOES 2 Rocket 4.5 23:21:49 10° WSW 23:27:28 57° SSE 23:35:01 10° E
Cosmos 1689 Rocket 3.6 23:26:30 10° NE 23:28:30 18° E 23:30:32 10° SE
Lacrosse 5 3.6 23:25:49 10° N 23:28:40 15° NE 23:31:31 10° ENE
Cosmos 1603 4.2 23:23:16 10° NNW 23:28:56 67° WSW 23:34:37 10° S
Cosmos 1340 4.4 23:28:15 10° ESE 23:30:11 14° E 23:32:06 10° ENE
Cosmos 1455 3.5 23:29:58 10° NNE 23:32:54 21° ENE 23:35:49 10° SE
NOSS 2-1 (E) 3.9 23:31:24 10° S 23:34:36 29° ESE 23:37:25 11° NE
ATLAS 3B R/B 3.6 23:29:06 10° NW 23:36:01 58° WSW 23:43:10 10° S
BREEZE-M DEB (TANK) 2.1 23:34:56 10° NW 23:37:47 78° NE 23:42:32 10° ESE
Cosmos 1300 4.0 23:34:14 10° NNW 23:37:53 45° W 23:41:31 10° SSW
Aureole 3 4.2 23:36:23 10° NNE 23:38:34 17° ENE 23:40:40 10° ESE
Cosmos 1703 4.2 23:36:42 10° SSE 23:39:58 26° E 23:43:14 10° NNE
YAOGAN 1 3.7 23:37:30 10° ESE 23:40:50 22° ENE 23:44:10 10° NNE
Cosmos 1892 Rocket 4.3 23:37:19 10° SSW 23:41:35 57° W 23:45:51 10° N
ERS-2 2.1 23:41:35 10° NNE 23:45:10 59° E 23:48:44 10° S
CZ-4B R/B 2.1 23:41:58 10° N 23:45:13 53° WNW 23:48:22 10° SSW
Cosmos 2279 Rocket 4.3 23:39:05 10° N 23:45:20 76° W 23:51:32 10° S
Cosmos 1606 Rocket 4.5 23:41:48 10° NNW 23:46:06 54° W 23:50:24 10° S
H-2A R/B 4.4 23:42:38 10° NNW 23:46:13 25° WNW 23:49:43 10° SW
BREEZE-M DEB (TANK) 4.0 23:44:16 10° NW 23:47:30 74° SW 23:59:31 10° SE
Meteor 2-1 Rocket 4.4 23:46:41 10° N 23:51:57 44° ENE 23:57:10 10° SSE
Cosmos 990 Rocket 4.2 23:47:29 10° S 23:52:29 49° ESE 23:57:30 10° NNE
SJ 16-02 1.8 23:51:15 10° SSW 23:55:36 64° WNW 23:59:58 10° N
